When you browse on this site, cookies collect data to enhance your experience and personalize the content and advertising you see.
Visit our Privacy Policy to learn more. By continuing to use the site, you agree to this use of cookies and data.
  • In Norway
  • List of Countries
  • For 7 days
  • Water Temperature
  • Satellite Maps
  • Weather Map
  • Weather Widgets
  • user-avatar
    Login

    Hourly Weather Korçe

    Today, 21 January, Monday

    Time Temperature Precipitation Wind Pressure Humidity
    00:00 0°C° 0 mm 1 mps 662 mmHg 86%
    01:00 0°C° 0 mm 1 mps 662 mmHg 85%
    02:00 0°C° 0 mm 1 mps 662 mmHg 83%
    03:00 0°C° 0 mm 1 mps 662 mmHg 82%
    04:00 0°C° 0 mm 1 mps 662 mmHg 81%
    05:00 0°C° 0 mm 1 mps 662 mmHg 80%
    06:00 0°C° 0 mm 1 mps 662 mmHg 79%
    07:00 0°C° 0 mm 1 mps 662 mmHg 78%
    08:00 +1°C° 0 mm 1 mps 663 mmHg 76%
    09:00 +3°C° 0 mm 1 mps 664 mmHg 74%
    10:00 +5°C° 0 mm 1 mps 664 mmHg 72%
    11:00 +5°C° 0 mm 1 mps 664 mmHg 71%
    12:00 +5°C° 0 mm 2 mps 664 mmHg 70%
    13:00 +6°C° 0 mm 2 mps 664 mmHg 70%
    14:00 +5°C° 0 mm 2 mps 664 mmHg 73%
    15:00 +4°C° 0 mm 2 mps 664 mmHg 76%
    16:00 +5°C° 0 mm 1 mps 664 mmHg 79%
    17:00 +3°C° 0 mm 2 mps 663 mmHg 82%
    18:00 +2°C° 0 mm 2 mps 663 mmHg 85%
    19:00 +1°C° 0 mm 2 mps 663 mmHg 88%
    20:00 +1°C° 0 mm 2 mps 663 mmHg 89%
    21:00 +1°C° 0 mm 2 mps 663 mmHg 89%
    22:00 -1°C° 0 mm 2 mps 663 mmHg 89%
    23:00 -1°C° 0 mm 2 mps 663 mmHg 89%

    Tomorrow, 22 January, Tuesday

    Time Temperature Precipitation Wind Pressure Humidity
    00:00 -1°C° 0 mm 2 mps 663 mmHg 88%
    01:00 -1°C° 0 mm 2 mps 663 mmHg 88%
    02:00 +1°C° 0.1 mm 2 mps 663 mmHg 88%
    03:00 +1°C° 0.1 mm 2 mps 662 mmHg 88%
    04:00 +1°C° 0.1 mm 2 mps 662 mmHg 88%
    05:00 0°C° 0.2 mm 3 mps 662 mmHg 88%
    06:00 0°C° 0.2 mm 3 mps 661 mmHg 88%
    07:00 0°C° 0.2 mm 3 mps 661 mmHg 89%
    08:00 0°C° 0.4 mm 3 mps 661 mmHg 89%
    09:00 +1°C° 0.4 mm 3 mps 661 mmHg 89%
    10:00 +1°C° 0.4 mm 3 mps 661 mmHg 89%
    11:00 +1°C° 0.9 mm 3 mps 660 mmHg 90%
    12:00 +1°C° 0.9 mm 3 mps 660 mmHg 91%
    13:00 +1°C° 0.9 mm 3 mps 659 mmHg 92%
    14:00 +1°C° 0.9 mm 3 mps 659 mmHg 92%
    15:00 +1°C° 0.9 mm 3 mps 658 mmHg 92%
    16:00 +1°C° 0.9 mm 3 mps 658 mmHg 92%
    17:00 +1°C° 1.4 mm 3 mps 657 mmHg 92%
    18:00 +1°C° 1.4 mm 3 mps 657 mmHg 93%
    19:00 +2°C° 1.4 mm 2 mps 657 mmHg 93%
    20:00 +1°C° 1.7 mm 3 mps 657 mmHg 94%
    21:00 +1°C° 1.7 mm 3 mps 657 mmHg 95%
    22:00 +1°C° 1.7 mm 3 mps 657 mmHg 96%
    23:00 +1°C° 0.8 mm 3 mps 657 mmHg 97%

    Day after tomorrow, 23 January, Wednesday

    Time Temperature Precipitation Wind Pressure Humidity
    00:00 +1°C° 0.8 mm 3 mps 656 mmHg 98%
    01:00 +2°C° 0.8 mm 2 mps 656 mmHg 98%
    02:00 0°C° 0.2 mm 3 mps 656 mmHg 98%
    03:00 0°C° 0.2 mm 3 mps 656 mmHg 98%
    04:00 0°C° 0.2 mm 3 mps 656 mmHg 98%
    05:00 -1°C° 0 mm 3 mps 656 mmHg 97%
    06:00 -1°C° 0 mm 3 mps 656 mmHg 97%
    07:00 -1°C° 0 mm 3 mps 656 mmHg 96%
    08:00 0°C° 0 mm 3 mps 656 mmHg 93%
    09:00 -1°C° 0 mm 4 mps 657 mmHg 90%
    10:00 0°C° 0 mm 4 mps 657 mmHg 87%
    11:00 +2°C° 0 mm 3 mps 657 mmHg 85%
    12:00 +2°C° 0 mm 3 mps 657 mmHg 82%
    13:00 +3°C° 0 mm 3 mps 656 mmHg 80%
    14:00 +2°C° 0 mm 3 mps 656 mmHg 81%
    15:00 +3°C° 0 mm 2 mps 655 mmHg 81%
    16:00 +2°C° 0 mm 2 mps 655 mmHg 82%
    17:00 +2°C° 0 mm 2 mps 655 mmHg 83%
    18:00 +1°C° 0 mm 2 mps 654 mmHg 84%
    19:00 +1°C° 0 mm 2 mps 654 mmHg 85%
    20:00 +1°C° 1.1 mm 2 mps 654 mmHg 87%
    21:00 +1°C° 1.1 mm 2 mps 654 mmHg 88%
    22:00 +1°C° 1.1 mm 2 mps 653 mmHg 90%
    23:00 +1°C° 0.8 mm 2 mps 653 mmHg 90%

    24 January, Thursday

    Time Temperature Precipitation Wind Pressure Humidity
    00:00 +1°C° 0.8 mm 2 mps 652 mmHg 91%
    01:00 0°C° 0.8 mm 3 mps 652 mmHg 91%
    02:00 0°C° 0.2 mm 3 mps 651 mmHg 91%
    03:00 0°C° 0.2 mm 3 mps 651 mmHg 91%
    04:00 0°C° 0.2 mm 3 mps 650 mmHg 91%
    05:00 0°C° 0 mm 3 mps 650 mmHg 91%
    06:00 0°C° 0 mm 3 mps 649 mmHg 91%
    07:00 0°C° 0 mm 3 mps 649 mmHg 91%
    08:00 +1°C° 0 mm 3 mps 649 mmHg 90%
    09:00 +2°C° 0 mm 3 mps 649 mmHg 89%
    10:00 +3°C° 0 mm 3 mps 650 mmHg 87%
    11:00 +4°C° 0.4 mm 2 mps 649 mmHg 88%
    12:00 +4°C° 0.4 mm 2 mps 649 mmHg 89%
    13:00 +4°C° 0.4 mm 2 mps 649 mmHg 89%
    14:00 +3°C° 0.9 mm 2 mps 649 mmHg 91%
    15:00 +3°C° 0.9 mm 2 mps 650 mmHg 93%
    16:00 +3°C° 0.9 mm 2 mps 650 mmHg 94%
    17:00 +2°C° 0.3 mm 2 mps 650 mmHg 94%
    18:00 +2°C° 0.3 mm 2 mps 650 mmHg 94%
    19:00 +2°C° 0.3 mm 2 mps 651 mmHg 93%
    20:00 +1°C° 0 mm 2 mps 651 mmHg 93%
    21:00 +1°C° 0 mm 2 mps 651 mmHg 93%
    22:00 -1°C° 0 mm 2 mps 650 mmHg 92%
    23:00 +1°C° 0.6 mm 2 mps 651 mmHg 92%

    25 January, Friday

    Time Temperature Precipitation Wind Pressure Humidity
    00:00 +1°C° 0.6 mm 2 mps 651 mmHg 92%
    01:00 +1°C° 0.6 mm 2 mps 651 mmHg 92%
    02:00 +1°C° 2 mm 2 mps 651 mmHg 93%
    03:00 +1°C° 2 mm 2 mps 652 mmHg 95%
    04:00 +2°C° 2 mm 1 mps 652 mmHg 97%
    05:00 +2°C° 0.9 mm 1 mps 652 mmHg 96%
    06:00 +2°C° 0.9 mm 1 mps 652 mmHg 96%
    07:00 +2°C° 0.9 mm 1 mps 652 mmHg 95%
    08:00 +2°C° 0.1 mm 1 mps 653 mmHg 93%
    09:00 +2°C° 0.1 mm 1 mps 653 mmHg 91%
    10:00 +3°C° 0.1 mm 1 mps 653 mmHg 89%
    11:00 +3°C° 0 mm 1 mps 653 mmHg 86%
    12:00 +3°C° 0 mm 1 mps 653 mmHg 83%
    13:00 +4°C° 0 mm 1 mps 654 mmHg 79%
    14:00 +3°C° 0 mm 1 mps 653 mmHg 81%
    15:00 +3°C° 0 mm 1 mps 653 mmHg 82%
    16:00 +3°C° 0 mm 1 mps 653 mmHg 84%
    17:00 +2°C° 0 mm 1 mps 653 mmHg 85%
    18:00 -1°C° 0 mm 2 mps 653 mmHg 87%
    19:00 -2°C° 0 mm 2 mps 653 mmHg 88%
    20:00 -2°C° 0 mm 2 mps 654 mmHg 89%
    21:00 -2°C° 0 mm 2 mps 654 mmHg 89%
    22:00 -2°C° 0 mm 2 mps 654 mmHg 89%
    23:00 -2°C° 0 mm 2 mps 654 mmHg 89%

    26 January, Saturday

    Time Temperature Precipitation Wind Pressure Humidity
    00:00 -2°C° 0 mm 2 mps 654 mmHg 89%
    01:00 -2°C° 0 mm 2 mps 654 mmHg 90%
    02:00 -3°C° 0 mm 2 mps 654 mmHg 89%
    03:00 -3°C° 0 mm 2 mps 654 mmHg 89%
    04:00 -3°C° 0 mm 2 mps 654 mmHg 89%
    05:00 -4°C° 0 mm 2 mps 654 mmHg 88%
    06:00 -4°C° 0 mm 2 mps 655 mmHg 88%
    07:00 -4°C° 0 mm 2 mps 655 mmHg 87%
    08:00 -3°C° 0 mm 2 mps 655 mmHg 84%
    09:00 -2°C° 0 mm 2 mps 656 mmHg 81%
    10:00 +1°C° 0 mm 2 mps 657 mmHg 78%
    11:00 +1°C° 0 mm 2 mps 657 mmHg 78%
    12:00 +2°C° 0 mm 2 mps 657 mmHg 78%
    13:00 +2°C° 0 mm 2 mps 657 mmHg 77%
    14:00 +2°C° 0 mm 2 mps 657 mmHg 79%
    15:00 +2°C° 0 mm 2 mps 657 mmHg 80%
    16:00 +1°C° 0 mm 2 mps 657 mmHg 81%
    17:00 -1°C° 0 mm 2 mps 657 mmHg 83%
    18:00 -2°C° 0 mm 2 mps 657 mmHg 85%
    19:00 -4°C° 0 mm 2 mps 657 mmHg 87%
    20:00 -4°C° 0 mm 2 mps 657 mmHg 87%
    21:00 -5°C° 0 mm 2 mps 657 mmHg 86%
    22:00 -3°C° 0 mm 1 mps 657 mmHg 85%
    23:00 -3°C° 0 mm 1 mps 657 mmHg 83%
    Show more